Location: Ch�tillon
(48.8024°N, 2.2935°E)
Time: 22:52:30
(UTC+00:00)

LO-87 - Pass Details

Date: 01 July 2022
Orbit: 450 x 466 km, 97.4° (Epoch: 18 August)

Event Time Altitude Azimuth Distance (km) Brightness Sun altitude
Exits shadow 21:50:50 - 93° (E) 1,893 ? -13.0°
Reaches altitude 10° 21:52:50 10° 63° (ENE) 1,620 ? -13.1°
Maximum altitude 21:53:05 10° 59° (ENE) 1,617 ? -13.2°
Drops below altitude 10° 21:53:20 10° 55° (NE) 1,621 ? -13.2°
Sets 21:57:23 0° 8° (N) 2,513 ? -13.5°
